sat.trackr.live / text

‹ back to catalog

AEROCUBE 18B

NORAD 63222 · 2025-052N

PAYLOAD ACTIVE UNKNOWN

§ Identity

Operator
Country
US
Launch date
2025-03-15
Launch site
AFWTR
Launch vehicle
Mass (kg)
RCS (m²)

External: N2YO · Heavens-Above · Gunter

§ Orbital elements

Epoch: 2026-05-25T03:32:06.410688Z

Period
94.49 min
Inclination
97.4003°
Eccentricity
0.0003893
Mean motion
15.24044997 rev/d
Perigee alt
491.0 km
Apogee alt
496.3 km
Semi-major
6,871.8 km
B*
2.2369e-4
RAAN
38.9046°
Arg perigee
185.7829°
Mean anomaly
174.3364°
Rev number
6,638

§ Raw data

AEROCUBE 18B1 63222U 25052N   26145.14729642  .00005355  00000+0  22369-3 0  99942 63222  97.4003  38.9046 0003893 185.7829 174.3364 15.24044997 66389

JSON: /api/v1/satellites/63222 · /tle

For live sub-satellite position, see the globe view (requires WebGL).

§ Visibility from observer

Set your observer location to see the next 7 days of passes ≥ 10°. The values pass through the URL so the page stays shareable.

No JS? Fill the form by hand. The geolocation button needs JavaScript.

§ Radio — SatNOGS DB

ModeDescriptionDownlinkUplink
OQPSK Mode U - OQPSK 1Mbps 2.225 GHz

1 transmitter · refreshed weekly from db.satnogs.org